This is the latest recevied weather packets stored in our database for station/object KD8DLP-13. If no packets are shown the sender has not sent any weather packets the latest 10 day(s).
| Time | Temp. | Humidity | Pressure | Rain* | Wind** | Luminosity | Snow |
|---|---|---|---|---|---|---|---|
| 1777984661 | 9.44° C | 74% | 1007.4 hPa | 0 mm | - | 52 W/m² | - |
| 1777984358 | 9.44° C | 75% | 1007 hPa | 0 mm | - | 83 W/m² | - |
| 1777984054 | 9.44° C | 74% | 1007.7 hPa | 0 mm | - | 57 W/m² | - |
| 1777983752 | 9.44° C | 74% | 1006.9 hPa | 0 mm | - | 126 W/m² | - |
| 1777983448 | 8.89° C | 76% | 1006.8 hPa | 0 mm | - | 125 W/m² | - |
| 1777983145 | 8.89° C | 76% | 1006.4 hPa | 0 mm | - | 75 W/m² | - |
| 1777982841 | 8.89° C | 77% | 1006.6 hPa | 0 mm | - | 33 W/m² | - |
| 1777982537 | 8.89° C | 77% | 1006.9 hPa | 0 mm | - | 33 W/m² | - |
| 1777982236 | 8.89° C | 77% | 1006.7 hPa | 0 mm | - | 29 W/m² | - |
| 1777981934 | 8.89° C | 78% | 1006.4 hPa | 0 mm | - | 37 W/m² | - |
| 1777981631 | 8.89° C | 79% | 1006.5 hPa | 0 mm | - | 71 W/m² | - |
| 1777981327 | 8.33° C | 80% | 1006.5 hPa | 0 mm | - | 104 W/m² | - |
| 1777981023 | 8.33° C | 80% | 1006.5 hPa | 0 mm | - | 62 W/m² | - |
| 1777980720 | 8.33° C | 80% | 1006.3 hPa | 0 mm | - | 53 W/m² | - |
| 1777980416 | 8.33° C | 80% | 1006.4 hPa | 0 mm | - | 40 W/m² | - |
| 1777980115 | 8.33° C | 79% | 1006.2 hPa | 0 mm | - | 34 W/m² | - |
| 1777979814 | 8.33° C | 79% | 1006.1 hPa | 0 mm | - | 20 W/m² | - |
| 1777979510 | 8.33° C | 79% | 1005.9 hPa | 0 mm | - | 26 W/m² | - |
| 1777979206 | 8.33° C | 79% | 1005.8 hPa | 0 mm | - | 22 W/m² | - |
| 1777978904 | 7.78° C | 80% | 1005.8 hPa | 0 mm | - | 21 W/m² | - |
| 1777978600 | 7.78° C | 80% | 1005.7 hPa | 0 mm | - | 18 W/m² | - |
| 1777978296 | 7.78° C | 81% | 1005.9 hPa | 0 mm | - | 12 W/m² | - |
| 1777977993 | 7.78° C | 81% | 1005.9 hPa | 0 mm | - | 10 W/m² | - |
| 1777977691 | 7.78° C | 82% | 1005.2 hPa | 0 mm | - | 6 W/m² | - |
| 1777977387 | 7.78° C | 81% | 1005.2 hPa | 0 mm | - | 4 W/m² | - |
* Rain latest hour (hover to see other rain measurements)
** Current wind speed in m/s (hover to see current wind gust speed)